CW1855 Weather Reports


Display with metric or nautical units.
time (UTC)temp
F
wind
direction
speed
MPH
gust
MPH
rain 1hr
in
rain 24hr
in
rain mn
in
humidity
%
barometer
mb
20171017203707 63 282 8.0 13.0 0.00 0.00 0.00 33 1020.4
20171017202206 63 238 4.0 11.0 0.00 0.00 0.00 34 1020.4
20171017201708 63 286 6.0 11.0 0.00 0.00 0.00 34 1020.4
20171017201206 62 294 5.0 11.0 0.00 0.00 0.00 34 1020.4
20171017200207 62 230 7.0 11.0 0.00 0.00 0.00 35 1020.4
20171017195705 62 239 6.0 11.0 0.00 0.00 0.00 35 1020.4
20171017194707 64 271 5.0 11.0 0.00 0.00 0.00 33 1019.4
20171017193707 63 265 8.0 11.0 0.00 0.00 0.00 35 1019.4
20171017193207 62 275 8.0 11.0 0.00 0.00 0.00 35 1019.4
20171017192210 61 252 7.0 14.0 0.00 0.00 0.00 36 1019.4
20171017191707 61 280 8.0 14.0 0.00 0.00 0.00 36 1019.4
20171017191206 60 271 8.0 13.0 0.00 0.00 0.00 37 1019.4
20171017184208 57 270 7.0 13.0 0.00 0.00 0.00 40 1019.4
20171017183706 58 288 8.0 13.0 0.00 0.00 0.00 39 1019.4
20171017182708 58 246 9.0 11.0 0.00 0.00 0.00 39 1019.4
20171017182208 58 253 8.0 11.0 0.00 0.00 0.00 41 1019.4
20171017175707 57 256 7.0 15.0 0.00 0.00 0.00 41 1019.4
20171017175206 57 293 9.0 15.0 0.00 0.00 0.00 41 1019.4
20171017174207 57 244 8.0 9.0 0.00 0.00 0.00 41 1019.4
20171017173707 58 259 7.0 9.0 0.00 0.00 0.00 40 1019.4
20171017173209 60 256 7.0 9.0 0.00 0.00 0.00 39 1020.4
20171017172706 60 243 8.0 9.0 0.00 0.00 0.00 39 1020.4
20171017172206 62 242 6.0 9.0 0.00 0.00 0.00 38 1020.4
20171017171707 61 237 5.0 9.0 0.00 0.00 0.00 40 1019.4
20171017171207 58 231 5.0 8.0 0.00 0.00 0.00 45 1019.4
20171017170709 57 222 6.0 8.0 0.00 0.00 0.00 45 1019.4
20171017170206 57 240 4.0 8.0 0.00 0.00 0.00 45 1020.4
20171017165709 56 261 5.0 8.0 0.00 0.00 0.00 46 1020.4
20171017165207 55 266 5.0 8.0 0.00 0.00 0.00 46 1020.4
20171017164706 55 279 4.0 8.0 0.00 0.00 0.00 46 1019.4
20171017164213 56 267 6.0 9.0 0.00 0.00 0.00 46 1019.4
20171017163207 54 272 6.0 9.0 0.00 0.00 0.00 48 1019.4
20171017160708 51 229 5.0 8.0 0.00 0.00 0.00 76 1019.4
20171017160206 50 219 6.0 6.0 0.00 0.00 0.00 86 1019.4
20171017155706 50 231 5.0 6.0 0.00 0.00 0.00 90 1019.4
20171017155207 50 252 5.0 6.0 0.00 0.00 0.00 93 1019.4
20171017154706 50 249 3.0 6.0 0.00 0.00 0.00 96 1019.4
20171017154207 49 247 4.0 6.0 0.00 0.00 0.00 96 1019.4
20171017151716 49 263 4.0 6.0 0.00 0.00 0.00 96 1019.4
20171017150206 47 249 0.0 0.0 0.00 0.00 0.00 98 1019.4
20171017145707 44 266 0.0 0.0 0.00 0.00 0.00 97 1019.4
20171017144705 41 118 0.0 0.0 0.00 0.00 0.00 94 1018.4
20171017144206 40 118 0.0 0.0 0.00 0.00 0.00 94 1018.4
20171017143707 40 118 0.0 0.0 0.00 0.00 0.00 93 1018.4
20171017143209 40 118 0.0 0.0 0.00 0.00 0.00 94 1018.4
20171017141707 41 118 0.0 0.0 0.00 0.00 0.00 94 1018.4
20171017140707 40 118 0.0 0.0 0.00 0.00 0.00 94 1018.4
20171017140205 41 118 0.0 2.0 0.00 0.00 0.00 94 1018.4
20171017135706 41 118 0.0 2.0 0.00 0.00 0.00 94 1018.4
20171017135207 41 118 0.0 0.0 0.00 0.00 0.00 94 1018.4
20171017134707 41 183 0.0 0.0 0.00 0.00 0.00 93 1018.4
20171017134205 41 183 0.0 0.0 0.00 0.00 0.00 94 1018.4
20171017133708 41 183 0.0 0.0 0.00 0.00 0.00 93 1018.4
20171017133208 40 183 0.0 0.0 0.00 0.00 0.00 93 1018.4
20171017132209 40 197 0.0 0.0 0.00 0.00 0.00 93 1018.4
20171017131707 40 197 0.0 0.0 0.00 0.00 0.00 93 1017.4
20171017130708 39 216 0.0 0.0 0.00 0.00 0.00 91 1017.4
20171017130208 39 216 0.0 0.0 0.00 0.00 0.00 91 1017.4
20171017125205 39 146 0.0 0.0 0.00 0.00 0.00 89 1017.4
20171017124708 39 137 0.0 0.0 0.00 0.00 0.00 89 1018.4
20171017124207 39 137 0.0 0.0 0.00 0.00 0.00 89 1018.4
20171017123708 39 137 0.0 0.0 0.00 0.00 0.00 88 1018.4
20171017122711 39 137 0.0 0.0 0.00 0.00 0.00 88 1018.4
20171017115708 39 137 0.0 0.0 0.00 0.00 0.00 89 1017.4
20171017115207 39 137 0.0 2.0 0.00 0.00 0.00 89 1017.4
20171017114706 40 137 0.0 2.0 0.00 0.00 0.00 89 1017.4
20171017114206 39 137 0.0 0.0 0.00 0.00 0.00 88 1017.4
20171017113706 39 137 0.0 0.0 0.00 0.00 0.00 88 1017.4
20171017113208 38 110 0.0 0.0 0.00 0.00 0.00 87 1018.4
20171017112707 38 110 0.0 0.0 0.00 0.00 0.00 87 1018.4
20171017111706 38 110 0.0 0.0 0.00 0.00 0.00 87 1018.4
20171017111207 38 110 0.0 0.0 0.00 0.00 0.00 87 1018.4
20171017110706 38 110 0.0 0.0 0.00 0.00 0.00 87 1018.4
20171017110207 38 110 0.0 0.0 0.00 0.00 0.00 87 1018.4
20171017105206 38 110 0.0 0.0 0.00 0.00 0.00 87 1018.4
20171017104705 38 110 0.0 0.0 0.00 0.00 0.00 86 1018.4
20171017103707 39 110 0.0 0.0 0.00 0.00 0.00 86 1018.4
20171017103207 39 110 0.0 0.0 0.00 0.00 0.00 86 1018.4
20171017102706 38 110 0.0 0.0 0.00 0.00 0.00 86 1018.4
20171017102208 38 110 0.0 0.0 0.00 0.00 0.00 86 1018.4
20171017101706 38 110 0.0 0.0 0.00 0.00 0.00 86 1018.4
20171017101207 38 110 0.0 0.0 0.00 0.00 0.00 87 1018.4
20171017095205 39 110 0.0 0.0 0.00 0.00 0.00 86 1018.4
20171017093207 39 110 0.0 0.0 0.00 0.00 0.00 87 1018.4
20171017092706 40 110 0.0 0.0 0.00 0.00 0.00 86 1018.4
20171017092207 39 110 0.0 0.0 0.00 0.00 0.00 85 1018.4
20171017091206 39 110 0.0 0.0 0.00 0.00 0.00 85 1018.4
20171017090708 39 110 0.0 0.0 0.00 0.00 0.00 85 1018.4
20171017085206 39 110 0.0 0.0 0.00 0.00 0.00 86 1017.4
20171017084708 39 110 0.0 0.0 0.00 0.00 0.00 86 1017.4
20171017081707 39 116 0.0 0.0 0.00 0.00 0.00 83 1018.4
20171017081205 39 116 0.0 0.0 0.00 0.00 0.00 83 1018.4
20171017080208 40 116 0.0 0.0 0.00 0.00 0.00 84 1018.4
20171017075707 40 116 0.0 0.0 0.00 0.00 0.00 85 1018.4
20171017074706 40 116 0.0 0.0 0.00 0.00 0.00 85 1018.4
20171017074206 40 116 0.0 0.0 0.00 0.00 0.00 83 1018.4
20171017073207 40 116 0.0 0.0 0.00 0.00 0.00 80 1018.4
20171017072207 40 116 0.0 0.0 0.00 0.00 0.00 83 1018.4
20171017071707 41 116 0.0 0.0 0.00 0.00 0.00 82 1018.4
20171017071206 41 116 0.0 0.0 0.00 0.00 0.00 82 1018.4
20171017070708 41 116 0.0 0.0 0.00 0.00 0.00 83 1018.4
20171017070206 41 116 0.0 0.0 0.00 0.00 0.00 82 1018.4
20171017065705 41 116 0.0 0.0 0.00 0.00 0.00 79 1018.4
20171017065206 42 116 0.0 0.0 0.00 0.00 0.00 81 1018.4
20171017064706 41 116 0.0 0.0 0.00 0.00 0.00 78 1019.4
20171017063706 42 116 0.0 0.0 0.00 0.00 0.00 82 1019.4
20171017062706 42 116 0.0 0.0 0.00 0.00 0.00 83 1019.4
20171017061707 42 116 0.0 0.0 0.00 0.00 0.00 80 1019.4
20171017061206 42 116 0.0 0.0 0.00 0.00 0.00 80 1019.4
20171017060706 42 116 0.0 0.0 0.00 0.00 0.00 81 1019.4
20171017060208 42 116 0.0 0.0 0.00 0.00 0.00 81 1019.4
20171017055707 42 116 0.0 0.0 0.00 0.00 0.00 82 1019.4
20171017054706 42 116 0.0 0.0 0.00 0.00 0.00 79 1018.4
20171017054208 42 116 0.0 0.0 0.00 0.00 0.00 80 1018.4
20171017053708 43 116 0.0 0.0 0.00 0.00 0.00 82 1018.4
20171017052707 43 116 0.0 0.0 0.00 0.00 0.00 83 1019.4
20171017052208 43 116 0.0 0.0 0.00 0.00 0.00 84 1019.4
20171017051206 43 61 0.0 0.0 0.00 0.00 0.00 69 1019.4
20171017050208 44 44 0.0 0.0 0.00 0.00 0.00 76 1019.4
20171017045206 44 44 0.0 0.0 0.00 0.00 0.00 72 1019.4
20171017044707 44 44 0.0 0.0 0.00 0.00 0.00 72 1019.4
20171017044208 44 40 0.0 0.0 0.00 0.00 0.00 69 1019.4
20171017043707 44 40 0.0 0.0 0.00 0.00 0.00 68 1019.4
20171017043207 44 40 0.0 0.0 0.00 0.00 0.00 68 1019.4
20171017042706 44 40 0.0 0.0 0.00 0.00 0.00 66 1019.4
20171017040206 45 40 0.0 0.0 0.00 0.00 0.00 66 1020.4
20171017035706 45 40 0.0 0.0 0.00 0.00 0.00 66 1020.4
20171017034707 45 40 0.0 0.0 0.00 0.00 0.00 67 1020.4
20171017034208 46 40 0.0 0.0 0.00 0.00 0.00 69 1020.4
20171017032707 46 40 0.0 0.0 0.00 0.00 0.00 61 1019.4
20171017031420 47 40 0.0 0.0 0.00 0.00 0.00 57 1020.4
20171017030207 47 40 0.0 0.0 0.00 0.00 0.00 58 1020.4
20171017025707 48 40 0.0 0.0 0.00 0.00 0.00 60 1020.4
20171017024707 48 14 0.0 0.0 0.00 0.00 0.00 63 1020.4
20171017024208 48 14 0.0 0.0 0.00 0.00 0.00 67 1020.4
20171017023705 48 14 0.0 0.0 0.00 0.00 0.00 63 1020.4
20171017022706 48 14 0.0 0.0 0.00 0.00 0.00 53 1020.4
20171017020708 50 14 0.0 0.0 0.00 0.00 0.00 51 1020.4
20171017014208 52 14 0.0 0.0 0.00 0.00 0.00 44 1020.4
20171017013707 53 14 0.0 0.0 0.00 0.00 0.00 42 1020.4
20171017013207 54 14 0.0 0.0 0.00 0.00 0.00 42 1020.4
20171017012207 55 14 0.0 0.0 0.00 0.00 0.00 40 1020.4
20171017011708 56 14 0.0 0.0 0.00 0.00 0.00 35 1020.4
20171017010708 58 14 0.0 0.0 0.00 0.00 0.00 29 1020.4
20171017010211 59 14 0.0 0.0 0.00 0.00 0.00 30 1020.4
20171017005207 62 14 0.0 0.0 0.00 0.00 0.00 25 1020.4
20171017004707 65 14 0.0 0.0 0.00 0.00 0.00 18 1021.4
20171017002706 74 14 0.0 0.0 0.00 0.00 0.00 16 1020.4
20171017001707 74 13 0.0 0.0 0.00 0.00 0.00 16 1021.4
20171017001206 74 13 0.0 0.0 0.00 0.00 0.00 16 1021.4
20171017000206 74 13 0.0 0.0 0.00 0.00 0.00 16 1021.4
20171016235208 75 13 0.0 0.0 0.00 0.00 0.00 15 1021.4
20171016233706 76 13 0.0 4.0 0.00 0.00 0.00 15 1021.4
20171016233207 76 13 0.0 4.0 0.00 0.00 0.00 15 1021.4
20171016232706 77 13 0.0 4.0 0.00 0.00 0.00 15 1021.4
20171016231706 78 226 0.0 0.0 0.00 0.00 0.00 15 1021.4
20171016230711 79 226 0.0 0.0 0.00 0.00 0.00 15 1021.4
20171016230207 78 226 0.0 0.0 0.00 0.00 0.00 15 1021.4
20171016225706 78 226 0.0 0.0 0.00 0.00 0.00 15 1021.4
20171016225206 79 226 0.0 3.0 0.00 0.00 0.00 15 1021.4
20171016223707 77 183 0.0 4.0 0.00 0.00 0.00 15 1021.4
20171016221705 80 234 0.0 4.0 0.00 0.00 0.00 15 1022.4
20171016221208 80 234 0.0 4.0 0.00 0.00 0.00 15 1022.4
20171016220707 80 234 0.0 4.0 0.00 0.00 0.00 15 1022.4
20171016220207 80 214 0.0 4.0 0.00 0.00 0.00 15 1022.4
20171016214707 74 101 2.0 3.0 0.00 0.00 0.00 16 1022.4
20171016213708 81 259 0.0 4.0 0.00 0.00 0.00 14 1022.4
20171016213206 82 260 3.0 4.0 0.00 0.00 0.00 14 1022.4
20171016212706 77 197 0.0 4.0 0.00 0.00 0.00 15 1022.4
20171016211707 76 261 0.0 5.0 0.00 0.00 0.00 15 1022.4
20171016210706 80 298 3.0 4.0 0.00 0.00 0.00 15 1022.4
20171016205707 81 294 3.0 5.0 0.00 0.00 0.00 14 1022.4